<?xml version="1.0" encoding="UTF-8" standalone="no" ?>
<gpx xmlns="http://www.topografix.com/GPX/1/1" xmlns:xsi="http://www.w3.org/2001/XMLSchema-instance" xsi:schemaLocation="http://www.topografix.com/GPX/1/1 http://www.topografix.com/GPX/1/1/gpx.xsd" version="1.1" creator="VisuGPX - https://www.visugpx.com">
  <metadata>
    <name>Marly et Noisy le roi</name>
    <desc><![CDATA[noisy le roi]]></desc>
  </metadata>
  <trk>
    <name><![CDATA[M 17 Foret de Marly et Noisy le Roi]]></name>
    <trkseg>
      <trkpt lat="48.85487" lon="2.07307">
        <ele>175</ele>
        <time>2007-09-20T15:12:15Z</time>
      </trkpt>
      <trkpt lat="48.85561" lon="2.06929">
        <ele>174</ele>
        <time>2007-09-20T15:12:15Z</time>
      </trkpt>
      <trkpt lat="48.85513" lon="2.06898">
        <ele>176</ele>
        <time>2007-09-20T15:12:15Z</time>
      </trkpt>
      <trkpt lat="48.855" lon="2.06844">
        <ele>177</ele>
        <time>2007-09-20T15:12:15Z</time>
      </trkpt>
      <trkpt lat="48.85508" lon="2.06745">
        <ele>177</ele>
        <time>2007-09-20T15:12:15Z</time>
      </trkpt>
      <trkpt lat="48.85508" lon="2.06697">
        <ele>177</ele>
        <time>2007-09-20T15:12:15Z</time>
      </trkpt>
      <trkpt lat="48.85502" lon="2.06653">
        <ele>177</ele>
        <time>2007-09-20T15:12:15Z</time>
      </trkpt>
      <trkpt lat="48.85497" lon="2.06629">
        <ele>177</ele>
        <time>2007-09-20T15:12:15Z</time>
      </trkpt>
      <trkpt lat="48.85486" lon="2.06629">
        <ele>177</ele>
        <time>2007-09-20T15:12:15Z</time>
      </trkpt>
      <trkpt lat="48.85483" lon="2.06462">
        <ele>177</ele>
        <time>2007-09-20T15:12:15Z</time>
      </trkpt>
      <trkpt lat="48.85294" lon="2.0644">
        <ele>178</ele>
        <time>2007-09-20T15:12:15Z</time>
      </trkpt>
      <trkpt lat="48.85213" lon="2.06413">
        <ele>174</ele>
        <time>2007-09-20T15:12:15Z</time>
      </trkpt>
      <trkpt lat="48.85135" lon="2.06621">
        <ele>179</ele>
        <time>2007-09-20T15:12:15Z</time>
      </trkpt>
      <trkpt lat="48.85131" lon="2.06614">
        <ele>179</ele>
        <time>2007-09-20T15:12:15Z</time>
      </trkpt>
      <trkpt lat="48.84805" lon="2.06449">
        <ele>159</ele>
        <time>2007-09-20T15:12:15Z</time>
      </trkpt>
      <trkpt lat="48.84784" lon="2.06449">
        <ele>160</ele>
        <time>2007-09-20T15:12:15Z</time>
      </trkpt>
      <trkpt lat="48.84787" lon="2.06452">
        <ele>160</ele>
        <time>2007-09-20T15:12:15Z</time>
      </trkpt>
      <trkpt lat="48.8476" lon="2.06568">
        <ele>169</ele>
        <time>2007-09-20T15:12:15Z</time>
      </trkpt>
      <trkpt lat="48.84731" lon="2.06586">
        <ele>169</ele>
        <time>2007-09-20T15:12:15Z</time>
      </trkpt>
      <trkpt lat="48.84726" lon="2.06681">
        <ele>174</ele>
        <time>2007-09-20T15:12:15Z</time>
      </trkpt>
      <trkpt lat="48.84607" lon="2.06661">
        <ele>163</ele>
        <time>2007-09-20T15:12:15Z</time>
      </trkpt>
      <trkpt lat="48.84598" lon="2.06658">
        <ele>162</ele>
        <time>2007-09-20T15:12:15Z</time>
      </trkpt>
      <trkpt lat="48.84583" lon="2.06658">
        <ele>161</ele>
        <time>2007-09-20T15:12:15Z</time>
      </trkpt>
      <trkpt lat="48.84553" lon="2.06692">
        <ele>160</ele>
        <time>2007-09-20T15:12:15Z</time>
      </trkpt>
      <trkpt lat="48.84344" lon="2.06649">
        <ele>148</ele>
        <time>2007-09-20T15:12:15Z</time>
      </trkpt>
      <trkpt lat="48.84351" lon="2.06642">
        <ele>148</ele>
        <time>2007-09-20T15:12:15Z</time>
      </trkpt>
      <trkpt lat="48.84263" lon="2.06642">
        <ele>146</ele>
        <time>2007-09-20T15:12:15Z</time>
      </trkpt>
      <trkpt lat="48.84257" lon="2.06642">
        <ele>145</ele>
        <time>2007-09-20T15:12:15Z</time>
      </trkpt>
      <trkpt lat="48.84272" lon="2.06598">
        <ele>145</ele>
        <time>2007-09-20T15:12:15Z</time>
      </trkpt>
      <trkpt lat="48.84227" lon="2.06527">
        <ele>143</ele>
        <time>2007-09-20T15:12:15Z</time>
      </trkpt>
      <trkpt lat="48.84223" lon="2.06462">
        <ele>142</ele>
        <time>2007-09-20T15:12:15Z</time>
      </trkpt>
      <trkpt lat="48.84335" lon="2.06557">
        <ele>146</ele>
        <time>2007-09-20T15:12:15Z</time>
      </trkpt>
      <trkpt lat="48.8438" lon="2.06519">
        <ele>146</ele>
        <time>2007-09-20T15:12:15Z</time>
      </trkpt>
      <trkpt lat="48.84427" lon="2.06444">
        <ele>148</ele>
        <time>2007-09-20T15:12:15Z</time>
      </trkpt>
      <trkpt lat="48.84499" lon="2.06485">
        <ele>152</ele>
        <time>2007-09-20T15:12:15Z</time>
      </trkpt>
      <trkpt lat="48.84557" lon="2.06495">
        <ele>155</ele>
        <time>2007-09-20T15:12:15Z</time>
      </trkpt>
      <trkpt lat="48.84582" lon="2.06416">
        <ele>152</ele>
        <time>2007-09-20T15:12:15Z</time>
      </trkpt>
      <trkpt lat="48.84593" lon="2.06396">
        <ele>152</ele>
        <time>2007-09-20T15:12:15Z</time>
      </trkpt>
      <trkpt lat="48.8464" lon="2.06334">
        <ele>152</ele>
        <time>2007-09-20T15:12:15Z</time>
      </trkpt>
      <trkpt lat="48.84656" lon="2.06334">
        <ele>153</ele>
        <time>2007-09-20T15:12:15Z</time>
      </trkpt>
      <trkpt lat="48.84793" lon="2.06388">
        <ele>155</ele>
        <time>2007-09-20T15:12:15Z</time>
      </trkpt>
      <trkpt lat="48.84816" lon="2.06405">
        <ele>156</ele>
        <time>2007-09-20T15:12:15Z</time>
      </trkpt>
      <trkpt lat="48.84852" lon="2.06408">
        <ele>156</ele>
        <time>2007-09-20T15:12:15Z</time>
      </trkpt>
      <trkpt lat="48.84885" lon="2.06421">
        <ele>157</ele>
        <time>2007-09-20T15:12:15Z</time>
      </trkpt>
      <trkpt lat="48.84894" lon="2.06414">
        <ele>158</ele>
        <time>2007-09-20T15:12:15Z</time>
      </trkpt>
      <trkpt lat="48.85136" lon="2.06161">
        <ele>150</ele>
        <time>2007-09-20T15:12:15Z</time>
      </trkpt>
      <trkpt lat="48.85161" lon="2.06056">
        <ele>150</ele>
        <time>2007-09-20T15:12:15Z</time>
      </trkpt>
      <trkpt lat="48.85477" lon="2.05621">
        <ele>162</ele>
        <time>2007-09-20T15:12:15Z</time>
      </trkpt>
      <trkpt lat="48.85483" lon="2.05604">
        <ele>162</ele>
        <time>2007-09-20T15:12:15Z</time>
      </trkpt>
      <trkpt lat="48.85631" lon="2.05392">
        <ele>157</ele>
        <time>2007-09-20T15:12:15Z</time>
      </trkpt>
      <trkpt lat="48.85644" lon="2.05205">
        <ele>155</ele>
        <time>2007-09-20T15:12:15Z</time>
      </trkpt>
      <trkpt lat="48.85646" lon="2.05089">
        <ele>153</ele>
        <time>2007-09-20T15:12:15Z</time>
      </trkpt>
      <trkpt lat="48.85646" lon="2.05042">
        <ele>153</ele>
        <time>2007-09-20T15:12:15Z</time>
      </trkpt>
      <trkpt lat="48.85639" lon="2.04902">
        <ele>151</ele>
        <time>2007-09-20T15:12:15Z</time>
      </trkpt>
      <trkpt lat="48.85749" lon="2.04789">
        <ele>145</ele>
        <time>2007-09-20T15:12:15Z</time>
      </trkpt>
      <trkpt lat="48.85803" lon="2.04819">
        <ele>144</ele>
        <time>2007-09-20T15:12:15Z</time>
      </trkpt>
      <trkpt lat="48.85834" lon="2.04853">
        <ele>146</ele>
        <time>2007-09-20T15:12:15Z</time>
      </trkpt>
      <trkpt lat="48.85843" lon="2.04877">
        <ele>148</ele>
        <time>2007-09-20T15:12:15Z</time>
      </trkpt>
      <trkpt lat="48.85879" lon="2.04863">
        <ele>152</ele>
        <time>2007-09-20T15:12:15Z</time>
      </trkpt>
      <trkpt lat="48.85908" lon="2.04853">
        <ele>157</ele>
        <time>2007-09-20T15:12:15Z</time>
      </trkpt>
      <trkpt lat="48.85935" lon="2.04843">
        <ele>163</ele>
        <time>2007-09-20T15:12:15Z</time>
      </trkpt>
      <trkpt lat="48.85962" lon="2.04836">
        <ele>166</ele>
        <time>2007-09-20T15:12:15Z</time>
      </trkpt>
      <trkpt lat="48.85962" lon="2.04829">
        <ele>166</ele>
        <time>2007-09-20T15:12:15Z</time>
      </trkpt>
      <trkpt lat="48.85989" lon="2.04761">
        <ele>167</ele>
        <time>2007-09-20T15:12:15Z</time>
      </trkpt>
      <trkpt lat="48.86005" lon="2.0473">
        <ele>168</ele>
        <time>2007-09-20T15:12:15Z</time>
      </trkpt>
      <trkpt lat="48.86023" lon="2.04689">
        <ele>169</ele>
        <time>2007-09-20T15:12:15Z</time>
      </trkpt>
      <trkpt lat="48.86054" lon="2.0461">
        <ele>169</ele>
        <time>2007-09-20T15:12:15Z</time>
      </trkpt>
      <trkpt lat="48.86085" lon="2.04539">
        <ele>169</ele>
        <time>2007-09-20T15:12:15Z</time>
      </trkpt>
      <trkpt lat="48.86105" lon="2.04443">
        <ele>165</ele>
        <time>2007-09-20T15:12:15Z</time>
      </trkpt>
      <trkpt lat="48.8611" lon="2.04436">
        <ele>165</ele>
        <time>2007-09-20T15:12:15Z</time>
      </trkpt>
      <trkpt lat="48.86165" lon="2.04167">
        <ele>153</ele>
        <time>2007-09-20T15:12:15Z</time>
      </trkpt>
      <trkpt lat="48.86174" lon="2.04147">
        <ele>153</ele>
        <time>2007-09-20T15:12:15Z</time>
      </trkpt>
      <trkpt lat="48.86235" lon="2.04204">
        <ele>160</ele>
        <time>2007-09-20T15:12:15Z</time>
      </trkpt>
      <trkpt lat="48.86388" lon="2.04363">
        <ele>177</ele>
        <time>2007-09-20T15:12:15Z</time>
      </trkpt>
      <trkpt lat="48.8639" lon="2.04363">
        <ele>177</ele>
        <time>2007-09-20T15:12:15Z</time>
      </trkpt>
      <trkpt lat="48.86422" lon="2.0439">
        <ele>177</ele>
        <time>2007-09-20T15:12:15Z</time>
      </trkpt>
      <trkpt lat="48.86471" lon="2.04336">
        <ele>176</ele>
        <time>2007-09-20T15:12:15Z</time>
      </trkpt>
      <trkpt lat="48.86478" lon="2.04339">
        <ele>175</ele>
        <time>2007-09-20T15:12:15Z</time>
      </trkpt>
      <trkpt lat="48.86538" lon="2.04253">
        <ele>175</ele>
        <time>2007-09-20T15:12:15Z</time>
      </trkpt>
      <trkpt lat="48.8661" lon="2.04158">
        <ele>175</ele>
        <time>2007-09-20T15:12:15Z</time>
      </trkpt>
      <trkpt lat="48.86684" lon="2.04052">
        <ele>174</ele>
        <time>2007-09-20T15:12:15Z</time>
      </trkpt>
      <trkpt lat="48.86735" lon="2.03997">
        <ele>173</ele>
        <time>2007-09-20T15:12:15Z</time>
      </trkpt>
      <trkpt lat="48.86792" lon="2.03952">
        <ele>171</ele>
        <time>2007-09-20T15:12:15Z</time>
      </trkpt>
      <trkpt lat="48.86852" lon="2.03894">
        <ele>170</ele>
        <time>2007-09-20T15:12:15Z</time>
      </trkpt>
      <trkpt lat="48.86883" lon="2.03873">
        <ele>171</ele>
        <time>2007-09-20T15:12:15Z</time>
      </trkpt>
      <trkpt lat="48.86913" lon="2.03901">
        <ele>169</ele>
        <time>2007-09-20T15:12:15Z</time>
      </trkpt>
      <trkpt lat="48.86953" lon="2.03948">
        <ele>172</ele>
        <time>2007-09-20T15:12:15Z</time>
      </trkpt>
      <trkpt lat="48.86985" lon="2.03995">
        <ele>175</ele>
        <time>2007-09-20T15:12:15Z</time>
      </trkpt>
      <trkpt lat="48.86994" lon="2.04026">
        <ele>175</ele>
        <time>2007-09-20T15:12:15Z</time>
      </trkpt>
      <trkpt lat="48.86994" lon="2.04081">
        <ele>174</ele>
        <time>2007-09-20T15:12:15Z</time>
      </trkpt>
      <trkpt lat="48.86987" lon="2.04159">
        <ele>172</ele>
        <time>2007-09-20T15:12:15Z</time>
      </trkpt>
      <trkpt lat="48.87008" lon="2.04166">
        <ele>171</ele>
        <time>2007-09-20T15:12:15Z</time>
      </trkpt>
      <trkpt lat="48.87012" lon="2.04189">
        <ele>169</ele>
        <time>2007-09-20T15:12:15Z</time>
      </trkpt>
      <trkpt lat="48.8701" lon="2.0422">
        <ele>168</ele>
        <time>2007-09-20T15:12:15Z</time>
      </trkpt>
      <trkpt lat="48.86999" lon="2.04247">
        <ele>166</ele>
        <time>2007-09-20T15:12:15Z</time>
      </trkpt>
      <trkpt lat="48.86976" lon="2.04251">
        <ele>167</ele>
        <time>2007-09-20T15:12:15Z</time>
      </trkpt>
      <trkpt lat="48.86959" lon="2.04251">
        <ele>164</ele>
        <time>2007-09-20T15:12:15Z</time>
      </trkpt>
      <trkpt lat="48.86956" lon="2.04217">
        <ele>167</ele>
        <time>2007-09-20T15:12:15Z</time>
      </trkpt>
      <trkpt lat="48.86947" lon="2.04125">
        <ele>171</ele>
        <time>2007-09-20T15:12:15Z</time>
      </trkpt>
      <trkpt lat="48.86954" lon="2.04101">
        <ele>173</ele>
        <time>2007-09-20T15:12:15Z</time>
      </trkpt>
      <trkpt lat="48.86951" lon="2.04077">
        <ele>173</ele>
        <time>2007-09-20T15:12:15Z</time>
      </trkpt>
      <trkpt lat="48.86951" lon="2.04023">
        <ele>172</ele>
        <time>2007-09-20T15:12:15Z</time>
      </trkpt>
      <trkpt lat="48.86864" lon="2.04139">
        <ele>156</ele>
        <time>2007-09-20T15:12:15Z</time>
      </trkpt>
      <trkpt lat="48.86745" lon="2.0432">
        <ele>158</ele>
        <time>2007-09-20T15:12:15Z</time>
      </trkpt>
      <trkpt lat="48.86714" lon="2.04324">
        <ele>161</ele>
        <time>2007-09-20T15:12:15Z</time>
      </trkpt>
      <trkpt lat="48.86644" lon="2.04355">
        <ele>165</ele>
        <time>2007-09-20T15:12:15Z</time>
      </trkpt>
      <trkpt lat="48.86561" lon="2.0441">
        <ele>168</ele>
        <time>2007-09-20T15:12:15Z</time>
      </trkpt>
      <trkpt lat="48.86537" lon="2.04417">
        <ele>170</ele>
        <time>2007-09-20T15:12:15Z</time>
      </trkpt>
      <trkpt lat="48.86534" lon="2.04407">
        <ele>170</ele>
        <time>2007-09-20T15:12:15Z</time>
      </trkpt>
      <trkpt lat="48.86519" lon="2.04403">
        <ele>171</ele>
        <time>2007-09-20T15:12:15Z</time>
      </trkpt>
      <trkpt lat="48.86509" lon="2.04363">
        <ele>173</ele>
        <time>2007-09-20T15:12:15Z</time>
      </trkpt>
      <trkpt lat="48.86377" lon="2.045">
        <ele>175</ele>
        <time>2007-09-20T15:12:15Z</time>
      </trkpt>
      <trkpt lat="48.86281" lon="2.04636">
        <ele>173</ele>
        <time>2007-09-20T15:12:15Z</time>
      </trkpt>
      <trkpt lat="48.86167" lon="2.04838">
        <ele>156</ele>
        <time>2007-09-20T15:12:15Z</time>
      </trkpt>
      <trkpt lat="48.86176" lon="2.04821">
        <ele>157</ele>
        <time>2007-09-20T15:12:15Z</time>
      </trkpt>
      <trkpt lat="48.85941" lon="2.05221">
        <ele>167</ele>
        <time>2007-09-20T15:12:15Z</time>
      </trkpt>
      <trkpt lat="48.85936" lon="2.05238">
        <ele>168</ele>
        <time>2007-09-20T15:12:15Z</time>
      </trkpt>
      <trkpt lat="48.85728" lon="2.05613">
        <ele>177</ele>
        <time>2007-09-20T15:12:15Z</time>
      </trkpt>
      <trkpt lat="48.85726" lon="2.05606">
        <ele>177</ele>
        <time>2007-09-20T15:12:15Z</time>
      </trkpt>
      <trkpt lat="48.85706" lon="2.05807">
        <ele>174</ele>
        <time>2007-09-20T15:12:15Z</time>
      </trkpt>
      <trkpt lat="48.85689" lon="2.05903">
        <ele>172</ele>
        <time>2007-09-20T15:12:15Z</time>
      </trkpt>
      <trkpt lat="48.85678" lon="2.06087">
        <ele>170</ele>
        <time>2007-09-20T15:12:15Z</time>
      </trkpt>
      <trkpt lat="48.85658" lon="2.06349">
        <ele>171</ele>
        <time>2007-09-20T15:12:15Z</time>
      </trkpt>
      <trkpt lat="48.8561" lon="2.06802">
        <ele>174</ele>
        <time>2007-09-20T15:12:15Z</time>
      </trkpt>
      <trkpt lat="48.85552" lon="2.07249">
        <ele>168</ele>
        <time>2007-09-20T15:12:15Z</time>
      </trkpt>
      <trkpt lat="48.85499" lon="2.07351">
        <ele>174</ele>
        <time>2007-09-20T15:12:15Z</time>
      </trkpt>
      <trkpt lat="48.8549" lon="2.07351">
        <ele>174</ele>
        <time>2007-09-20T15:12:15Z</time>
      </trkpt>
    </trkseg>
  </trk>
</gpx>